timestamp,surface_pressure_avg,surface_temp_avg,battery_voltage,lat,long
2022-11-21 00:09:01+00:00,302.9064,7.3,12.65,47.84626,-54.09684
2022-11-21 00:19:01+00:00,308.3697,7.2,12.65,47.84626,-54.09684
2022-11-21 00:29:01+00:00,302.0347,7.2,12.65,47.84626,-54.09684
2022-11-21 00:39:01+00:00,287.218,7.3,12.65,47.84626,-54.09684
2022-11-21 00:49:01+00:00,286.783,7.2,12.65,47.84626,-54.09684
2022-11-21 00:59:01+00:00,286.2264,7.0,12.65,47.84626,-54.09684
2022-11-21 01:09:01+00:00,282.52299999999997,6.92,12.65,47.84626,-54.09684
2022-11-21 01:19:00+00:00,272.2747,7.0,12.65,47.84626,-54.09684
2022-11-21 01:29:00+00:00,262.2581,6.9,12.65,47.84626,-54.09684
2022-11-21 01:39:00+00:00,259.4164,6.99,12.65,47.84626,-54.09684
2022-11-21 01:49:00+00:00,260.1697,6.96,12.65,47.84626,-54.09684
2022-11-21 01:59:00+00:00,251.5998,6.9,12.65,47.84626,-54.09684
2022-11-21 02:09:00+00:00,241.5714,7.11,12.65,47.84626,-54.09684
2022-11-21 02:19:00+00:00,236.3497,7.2,12.57,47.84626,-54.09684
2022-11-21 02:29:00+00:00,231.0681,7.25,12.57,47.84626,-54.09684
2022-11-21 02:39:00+00:00,221.6198,7.17,12.57,47.84626,-54.09684
2022-11-21 02:49:00+00:00,215.6148,7.23,12.57,47.84626,-54.09684
2022-11-21 02:59:00+00:00,212.1615,7.35,12.57,47.84626,-54.09684
2022-11-21 03:09:00+00:00,214.9147,7.43,12.57,47.84626,-54.09684
2022-11-21 03:19:00+00:00,216.8065,7.5,12.57,47.84626,-54.09684
2022-11-21 03:29:00+00:00,213.4164,7.54,12.57,47.84626,-54.09684
2022-11-21 03:39:00+00:00,209.8231,7.6,12.57,47.84626,-54.09684
2022-11-21 03:49:00+00:00,205.2314,7.6,12.57,47.84626,-54.09684
2022-11-21 03:59:00+00:00,206.4198,7.7,12.57,47.84626,-54.09684
2022-11-21 04:09:00+00:00,208.9948,7.6,12.57,47.84626,-54.09684
2022-11-21 04:19:01+00:00,207.7664,7.6,12.57,47.84626,-54.09684
2022-11-21 04:29:01+00:00,208.2781,7.58,12.57,47.84626,-54.09684
2022-11-21 04:39:01+00:00,220.0714,7.58,12.57,47.84626,-54.09684
2022-11-21 04:49:01+00:00,229.3064,7.58,12.57,47.84626,-54.09684
2022-11-21 04:59:01+00:00,235.2931,7.48,12.57,47.84626,-54.09684
2022-11-21 05:09:01+00:00,239.6164,7.4,12.57,47.84626,-54.09684
2022-11-21 05:19:01+00:00,241.3164,7.4,12.57,47.84626,-54.09684
2022-11-21 05:29:01+00:00,249.9131,7.4,12.57,47.84626,-54.09684
2022-11-21 05:39:01+00:00,257.7297,7.4,12.57,47.84626,-54.09684
2022-11-21 05:49:01+00:00,254.4047,7.29,12.57,47.84626,-54.09684
2022-11-21 05:59:01+00:00,250.6947,7.32,12.57,47.84626,-54.09684
2022-11-21 06:09:01+00:00,262.6747,7.77,12.57,47.84626,-54.09684
2022-11-21 06:19:01+00:00,275.5148,7.9,12.57,47.84626,-54.09684
2022-11-21 06:29:01+00:00,290.2681,7.8,12.57,47.84626,-54.09684
2022-11-21 06:39:01+00:00,315.693,8.0,12.57,47.84626,-54.09684
2022-11-21 06:49:01+00:00,342.793,8.19,12.57,47.84626,-54.09684
2022-11-21 06:59:01+00:00,338.1163,8.01,12.57,47.84626,-54.09684
2022-11-21 07:09:01+00:00,317.8396,8.27,12.57,47.84626,-54.09684
2022-11-21 07:19:00+00:00,328.5630000000001,8.29,12.57,47.84626,-54.09684
2022-11-21 07:29:00+00:00,355.5496,8.3,12.57,47.84626,-54.09684
2022-11-21 07:39:00+00:00,354.44300000000015,8.3,12.57,47.84626,-54.09684
2022-11-21 07:49:00+00:00,332.6714,8.4,12.57,47.84626,-54.09684
2022-11-21 07:59:00+00:00,331.9596,8.47,12.57,47.84626,-54.09684
2022-11-21 08:09:00+00:00,350.3946,8.41,12.57,47.84626,-54.09684
2022-11-21 08:19:00+00:00,358.4529,8.43,12.57,47.84626,-54.09684
2022-11-21 08:29:00+00:00,358.3229,8.48,12.57,47.84626,-54.09684
2022-11-21 08:39:00+00:00,355.0663,8.49,12.57,47.84626,-54.09684
2022-11-21 08:49:00+00:00,352.9846,8.48,12.57,47.84626,-54.09684
2022-11-21 08:59:00+00:00,346.9296,8.47,12.57,47.84626,-54.09684
2022-11-21 09:09:00+00:00,340.8663,8.46,12.57,47.84626,-54.09684
2022-11-21 09:19:00+00:00,327.0096,8.43,12.57,47.84626,-54.09684
2022-11-21 09:29:00+00:00,327.7863,8.4,12.57,47.84626,-54.09684
2022-11-21 09:39:00+00:00,345.3146,8.4,12.57,47.84626,-54.09684
2022-11-21 09:49:00+00:00,346.4313,8.18,12.57,47.84626,-54.09684
2022-11-21 09:59:00+00:00,333.2530000000001,7.7,12.57,47.84626,-54.09684
2022-11-21 10:09:00+00:00,333.463,7.64,12.57,47.84626,-54.09684
2022-11-21 10:19:00+00:00,347.1563,7.6,12.57,47.84626,-54.09684
2022-11-21 10:29:00+00:00,339.1779,7.5,12.57,47.84626,-54.09684
2022-11-21 10:39:00+00:00,322.478,7.4,12.57,47.84626,-54.09684
2022-11-21 10:49:00+00:00,337.3896,7.3,12.57,47.84626,-54.09684
2022-11-21 10:59:00+00:00,337.2079,7.39,12.57,47.84626,-54.09684
2022-11-21 11:09:00+00:00,308.7664,7.3,12.57,47.84626,-54.09684
2022-11-21 11:19:00+00:00,301.593,7.3,12.57,47.84626,-54.09684
2022-11-21 11:29:00+00:00,312.7498,7.28,12.57,47.84626,-54.09684
2022-11-21 11:39:00+00:00,310.3297,7.29,12.57,47.84626,-54.09684
2022-11-21 11:49:00+00:00,298.8513,7.37,12.57,47.84626,-54.09684
2022-11-21 11:59:00+00:00,298.648,7.39,12.57,47.84626,-54.09684
2022-11-21 12:09:00+00:00,287.7364,7.2,12.57,47.84626,-54.09684
2022-11-21 12:19:00+00:00,276.7931,7.56,12.57,47.84626,-54.09684
2022-11-21 12:29:00+00:00,278.7597,7.5,12.57,47.84626,-54.09684
2022-11-21 12:39:00+00:00,278.2914,7.4,12.57,47.84626,-54.09684
2022-11-21 12:49:00+00:00,265.8531,7.3,12.57,47.84626,-54.09684
2022-11-21 12:59:00+00:00,268.0164,7.3,12.57,47.84626,-54.09684
2022-11-21 13:09:00+00:00,281.1014,7.3,12.57,47.84626,-54.09684
2022-11-21 13:19:00+00:00,267.5014,7.23,13.92,47.84626,-54.09684
2022-11-21 13:29:00+00:00,244.8197,7.23,13.92,47.84626,-54.09684
2022-11-21 13:39:00+00:00,246.4214,7.25,13.92,47.84626,-54.09684
2022-11-21 13:49:00+00:00,247.9014,7.2,13.92,47.84626,-54.09684
2022-11-21 13:59:00+00:00,231.2531,7.2,13.92,47.84626,-54.09684
2022-11-21 14:09:00+00:00,211.3331,7.2,13.92,47.84626,-54.09684
2022-11-21 14:19:00+00:00,211.9281,7.2,13.05,47.84626,-54.09684
2022-11-21 14:29:00+00:00,211.5431,7.35,13.05,47.84626,-54.09684
2022-11-21 14:39:00+00:00,197.1181,7.47,13.05,47.84626,-54.09684
2022-11-21 14:49:00+00:00,187.8381,7.5,13.05,47.84626,-54.09684
2022-11-21 14:59:00+00:00,189.7365,7.58,13.05,47.84626,-54.09684
2022-11-21 15:09:00+00:00,183.7432,7.6,13.05,47.84626,-54.09684
2022-11-21 15:19:00+00:00,171.4215,7.61,13.13,47.84626,-54.09684
2022-11-21 15:29:00+00:00,163.9315,7.69,13.13,47.84626,-54.09684
2022-11-21 15:39:00+00:00,159.5815,7.74,13.13,47.84626,-54.09684
2022-11-21 15:49:00+00:00,151.8848,7.8,13.13,47.84626,-54.09684
2022-11-21 15:59:00+00:00,156.3065,7.8,13.13,47.84626,-54.09684
2022-11-21 16:09:00+00:00,162.7682,7.8,13.13,47.84626,-54.09684
2022-11-21 16:19:01+00:00,161.9764,7.85,13.84,47.84626,-54.09684
2022-11-21 16:29:01+00:00,175.0215,7.83,13.84,47.84626,-54.09684
2022-11-21 16:39:01+00:00,191.9515,7.88,13.84,47.84626,-54.09684
2022-11-21 16:49:01+00:00,199.4715,7.8,13.84,47.84626,-54.09684
2022-11-21 16:59:01+00:00,205.3281,7.8,13.84,47.84626,-54.09684
2022-11-21 17:09:01+00:00,218.3048,7.8,13.84,47.84626,-54.09684
2022-11-21 17:19:01+00:00,223.0065,7.7,13.76,47.84626,-54.09684
2022-11-21 17:29:01+00:00,212.7981,7.7,13.76,47.84626,-54.09684
2022-11-21 17:39:01+00:00,208.7115,7.7,13.76,47.84626,-54.09684
2022-11-21 17:49:01+00:00,224.6647,7.69,13.76,47.84626,-54.09684
2022-11-21 17:59:01+00:00,224.8148,7.69,13.76,47.84626,-54.09684
2022-11-21 18:09:01+00:00,212.1381,7.69,13.76,47.84626,-54.09684
2022-11-21 18:19:01+00:00,219.8165,7.68,13.53,47.84626,-54.09684
2022-11-21 18:29:01+00:00,231.2981,7.68,13.53,47.84626,-54.09684
2022-11-21 18:39:01+00:00,228.1648,7.65,13.53,47.84626,-54.09684
2022-11-21 18:49:01+00:00,229.2014,7.68,13.53,47.84626,-54.09684
2022-11-21 18:59:01+00:00,233.7064,7.67,13.53,47.84626,-54.09684
2022-11-21 19:09:01+00:00,232.7581,7.63,13.53,47.84626,-54.09684
2022-11-21 19:19:00+00:00,227.0881,7.6,13.29,47.84626,-54.09684
2022-11-21 19:29:00+00:00,228.0197,7.6,13.29,47.84626,-54.09684
2022-11-21 19:39:00+00:00,234.5614,7.6,13.29,47.84626,-54.09684
2022-11-21 19:49:00+00:00,241.6814,7.6,13.29,47.84626,-54.09684
2022-11-21 19:59:00+00:00,251.2997,7.6,13.29,47.84626,-54.09684
2022-11-21 20:09:00+00:00,259.7397,7.6,13.29,47.84626,-54.09684
2022-11-21 20:19:00+00:00,260.5097,7.56,12.89,47.84626,-54.09684
2022-11-21 20:29:00+00:00,264.8414,7.52,12.89,47.84626,-54.09684
2022-11-21 20:39:00+00:00,272.9797,7.5,12.89,47.84626,-54.09684
2022-11-21 20:49:00+00:00,271.7781,7.3,12.89,47.84626,-54.09684
2022-11-21 20:59:00+00:00,271.3197,7.35,12.89,47.84626,-54.09684
2022-11-21 21:09:00+00:00,286.7081,7.38,12.89,47.84626,-54.09684
2022-11-21 21:19:00+00:00,301.5114,7.39,12.73,47.84626,-54.09684
2022-11-21 21:29:00+00:00,301.193,7.3,12.73,47.84626,-54.09684
2022-11-21 21:39:00+00:00,307.5364,7.3,12.73,47.84626,-54.09684
2022-11-21 21:49:00+00:00,320.7679,7.3,12.73,47.84626,-54.09684
2022-11-21 21:59:00+00:00,325.0446,7.3,12.73,47.84626,-54.09684
2022-11-21 22:09:00+00:00,323.7597,7.26,12.73,47.84626,-54.09684
2022-11-21 22:19:00+00:00,338.1313,7.3,12.73,47.84626,-54.09684
2022-11-21 22:29:00+00:00,345.603,7.29,12.73,47.84626,-54.09684
2022-11-21 22:39:00+00:00,338.0046,7.2,12.73,47.84626,-54.09684
2022-11-21 22:49:00+00:00,341.3014,7.2,12.73,47.84626,-54.09684
2022-11-21 22:59:00+00:00,356.8546,7.2,12.73,47.84626,-54.09684
2022-11-21 23:09:00+00:00,360.548,7.19,12.73,47.84626,-54.09684
2022-11-21 23:19:00+00:00,356.80300000000005,7.2,12.65,47.84626,-54.09684
2022-11-21 23:29:00+00:00,358.2297,7.2,12.65,47.84626,-54.09684
2022-11-21 23:39:00+00:00,353.8812,7.2,12.65,47.84626,-54.09684
2022-11-21 23:49:00+00:00,339.033,7.2,12.65,47.84626,-54.09684
2022-11-21 23:59:00+00:00,327.853,7.17,12.65,47.84626,-54.09684
